| time (UTC) | temp F | wind direction | speed MPH | gust MPH | rain 1hr in | rain 24hr in | rain mn in | humidity % | barometer mb |
| 20260504110504 | 64 | 181 | 3.0 | 10.0 | 0.00 | 0.00 | 0.00 | 65 | 1013.1 |
| 20260504100504 | 65 | 195 | 5.0 | 12.0 | 0.00 | 0.00 | 0.00 | 65 | 1013.8 |
| 20260504082004 | 66 | 183 | 5.0 | 12.0 | 0.00 | 0.00 | 0.00 | 54 | 1014.1 |
| 20260504081504 | 66 | 201 | 6.0 | 14.0 | 0.00 | 0.00 | 0.00 | 54 | 1014.2 |
| 20260504081004 | 66 | 213 | 6.0 | 9.0 | 0.00 | 0.00 | 0.00 | 54 | 1014.3 |
| 20260504080504 | 66 | 196 | 7.0 | 16.0 | 0.00 | 0.00 | 0.00 | 53 | 1014.3 |
| 20260504050506 | 69 | 187 | 3.0 | 8.0 | 0.00 | 0.00 | 0.00 | 51 | 1016.3 |
| 20260504050006 | 69 | 175 | 3.0 | 7.0 | 0.00 | 0.00 | 0.00 | 50 | 1016.3 |
| 20260504045506 | 69 | 188 | 4.0 | 7.0 | 0.00 | 0.00 | 0.00 | 50 | 1016.4 |
| 20260504045007 | 69 | 179 | 3.0 | 9.0 | 0.00 | 0.00 | 0.00 | 50 | 1016.5 |
| 20260504044506 | 69 | 187 | 2.0 | 9.0 | 0.00 | 0.00 | 0.00 | 49 | 1016.4 |
| 20260504044006 | 69 | 197 | 2.0 | 7.0 | 0.00 | 0.00 | 0.00 | 49 | 1016.5 |
| 20260504043506 | 69 | 183 | 2.0 | 7.0 | 0.00 | 0.00 | 0.00 | 48 | 1016.5 |
| 20260504043007 | 70 | 190 | 2.0 | 8.0 | 0.00 | 0.00 | 0.00 | 48 | 1016.4 |
| 20260504042506 | 70 | 174 | 4.0 | 8.0 | 0.00 | 0.00 | 0.00 | 47 | 1016.5 |
| 20260504042006 | 70 | 179 | 2.0 | 7.0 | 0.00 | 0.00 | 0.00 | 47 | 1016.5 |
| 20260504041506 | 70 | 184 | 6.0 | 12.0 | 0.00 | 0.00 | 0.00 | 46 | 1016.5 |
| 20260504041006 | 71 | 192 | 5.0 | 8.0 | 0.00 | 0.00 | 0.00 | 46 | 1016.5 |
| 20260504040506 | 71 | 194 | 6.0 | 12.0 | 0.00 | 0.00 | 0.00 | 45 | 1016.6 |
| 20260504040006 | 71 | 193 | 4.0 | 10.0 | 0.00 | 0.00 | 0.00 | 45 | 1016.5 |
| 20260504035507 | 71 | 193 | 4.0 | 10.0 | 0.00 | 0.00 | 0.00 | 45 | 1016.5 |
| 20260504035007 | 71 | 178 | 6.0 | 13.0 | 0.00 | 0.00 | 0.00 | 44 | 1016.5 |
| 20260504034507 | 71 | 193 | 6.0 | 13.0 | 0.00 | 0.00 | 0.00 | 44 | 1016.4 |
| 20260504033506 | 71 | 184 | 5.0 | 13.0 | 0.00 | 0.00 | 0.00 | 44 | 1016.4 |
| 20260504033006 | 71 | 184 | 5.0 | 13.0 | 0.00 | 0.00 | 0.00 | 44 | 1016.4 |
| 20260504032506 | 71 | 199 | 5.0 | 12.0 | 0.00 | 0.00 | 0.00 | 44 | 1016.5 |
| 20260504032006 | 71 | 181 | 5.0 | 12.0 | 0.00 | 0.00 | 0.00 | 44 | 1016.5 |
| 20260504031006 | 72 | 181 | 5.0 | 9.0 | 0.00 | 0.00 | 0.00 | 44 | 1016.3 |
| 20260504025506 | 72 | 173 | 4.0 | 10.0 | 0.00 | 0.00 | 0.00 | 43 | 1016.2 |
| 20260504025006 | 72 | 193 | 5.0 | 9.0 | 0.00 | 0.00 | 0.00 | 43 | 1016.2 |
| 20260504024506 | 72 | 178 | 5.0 | 9.0 | 0.00 | 0.00 | 0.00 | 43 | 1016.3 |
| 20260504024006 | 73 | 181 | 5.0 | 10.0 | 0.00 | 0.00 | 0.00 | 43 | 1016.4 |
| 20260504023506 | 73 | 188 | 3.0 | 13.0 | 0.00 | 0.00 | 0.00 | 43 | 1016.3 |
| 20260504023005 | 73 | 178 | 6.0 | 13.0 | 0.00 | 0.00 | 0.00 | 42 | 1016.3 |
| 20260504022506 | 73 | 183 | 3.0 | 10.0 | 0.00 | 0.00 | 0.00 | 42 | 1016.4 |
| 20260504022006 | 73 | 188 | 6.0 | 13.0 | 0.00 | 0.00 | 0.00 | 41 | 1016.3 |
| 20260504021506 | 74 | 182 | 5.0 | 14.0 | 0.00 | 0.00 | 0.00 | 41 | 1016.2 |
| 20260504021006 | 74 | 191 | 5.0 | 13.0 | 0.00 | 0.00 | 0.00 | 41 | 1016.2 |
| 20260504020506 | 74 | 189 | 7.0 | 14.0 | 0.00 | 0.00 | 0.00 | 41 | 1016.1 |
| 20260504020006 | 74 | 187 | 5.0 | 13.0 | 0.00 | 0.00 | 0.00 | 41 | 1016.1 |
| 20260504015006 | 74 | 188 | 5.0 | 10.0 | 0.00 | 0.00 | 0.00 | 40 | 1016.1 |
| 20260504014505 | 74 | 174 | 4.0 | 13.0 | 0.00 | 0.00 | 0.00 | 40 | 1016.1 |
| 20260504014006 | 75 | 182 | 5.0 | 13.0 | 0.00 | 0.00 | 0.00 | 39 | 1015.9 |
| 20260504013506 | 75 | 180 | 8.0 | 15.0 | 0.00 | 0.00 | 0.00 | 38 | 1016.0 |
| 20260504013006 | 75 | 191 | 5.0 | 8.0 | 0.00 | 0.00 | 0.00 | 37 | 1015.9 |
| 20260504012506 | 75 | 179 | 4.0 | 8.0 | 0.00 | 0.00 | 0.00 | 36 | 1015.9 |
| 20260504012005 | 75 | 195 | 6.0 | 12.0 | 0.00 | 0.00 | 0.00 | 36 | 1015.8 |
| 20260504011505 | 75 | 196 | 5.0 | 13.0 | 0.00 | 0.00 | 0.00 | 36 | 1016.0 |
| 20260504011006 | 76 | 164 | 5.0 | 9.0 | 0.00 | 0.00 | 0.00 | 36 | 1015.9 |
| 20260504010506 | 76 | 188 | 5.0 | 10.0 | 0.00 | 0.00 | 0.00 | 36 | 1015.8 |
| 20260504010005 | 76 | 185 | 5.0 | 13.0 | 0.00 | 0.00 | 0.00 | 36 | 1015.7 |
| 20260504005506 | 76 | 187 | 4.0 | 9.0 | 0.00 | 0.00 | 0.00 | 36 | 1015.8 |
| 20260504005006 | 76 | 185 | 6.0 | 16.0 | 0.00 | 0.00 | 0.00 | 35 | 1015.7 |
| 20260504004505 | 76 | 193 | 3.0 | 9.0 | 0.00 | 0.00 | 0.00 | 35 | 1015.7 |
| 20260504004005 | 77 | 198 | 5.0 | 13.0 | 0.00 | 0.00 | 0.00 | 35 | 1015.7 |
| 20260504003506 | 77 | 208 | 5.0 | 10.0 | 0.00 | 0.00 | 0.00 | 34 | 1015.8 |
| 20260504002505 | 78 | 174 | 7.0 | 13.0 | 0.00 | 0.00 | 0.00 | 34 | 1015.6 |
| 20260504002006 | 78 | 189 | 3.0 | 12.0 | 0.00 | 0.00 | 0.00 | 34 | 1015.7 |
| 20260504001505 | 78 | 199 | 5.0 | 13.0 | 0.00 | 0.00 | 0.00 | 33 | 1015.8 |
| 20260504001006 | 78 | 191 | 6.0 | 12.0 | 0.00 | 0.00 | 0.00 | 33 | 1015.8 |
| 20260504000005 | 78 | 204 | 6.0 | 16.0 | 0.00 | 0.00 | 0.00 | 33 | 1016.0 |
| 20260503235006 | 79 | 180 | 3.0 | 12.0 | 0.00 | 0.00 | 0.00 | 33 | 1016.0 |
| 20260503234006 | 79 | 205 | 5.0 | 12.0 | 0.00 | 0.00 | 0.00 | 32 | 1016.0 |
| 20260503233505 | 79 | 212 | 5.0 | 10.0 | 0.00 | 0.00 | 0.00 | 32 | 1016.1 |
| 20260503233005 | 79 | 220 | 6.0 | 13.0 | 0.00 | 0.00 | 0.00 | 32 | 1016.2 |
| 20260503232506 | 79 | 242 | 5.0 | 12.0 | 0.00 | 0.00 | 0.00 | 32 | 1016.1 |
| 20260503231506 | 79 | 189 | 6.0 | 16.0 | 0.00 | 0.00 | 0.00 | 31 | 1016.2 |
| 20260503230505 | 80 | 180 | 6.0 | 14.0 | 0.00 | 0.00 | 0.00 | 32 | 1016.2 |
| 20260503225506 | 80 | 186 | 5.0 | 15.0 | 0.00 | 0.00 | 0.00 | 30 | 1016.2 |
| 20260503225006 | 80 | 160 | 8.0 | 16.0 | 0.00 | 0.00 | 0.00 | 30 | 1016.2 |
| 20260503224505 | 80 | 190 | 3.0 | 17.0 | 0.00 | 0.00 | 0.00 | 31 | 1016.2 |
| 20260503224005 | 80 | 183 | 8.0 | 17.0 | 0.00 | 0.00 | 0.00 | 30 | 1016.3 |
| 20260503223506 | 81 | 186 | 9.0 | 17.0 | 0.00 | 0.00 | 0.00 | 31 | 1016.3 |
| 20260503223005 | 81 | 209 | 7.0 | 16.0 | 0.00 | 0.00 | 0.00 | 31 | 1016.5 |
| 20260503222505 | 81 | 228 | 7.0 | 13.0 | 0.00 | 0.00 | 0.00 | 32 | 1016.5 |
| 20260503222005 | 81 | 206 | 7.0 | 16.0 | 0.00 | 0.00 | 0.00 | 31 | 1016.5 |
| 20260503221505 | 81 | 250 | 3.0 | 17.0 | 0.00 | 0.00 | 0.00 | 32 | 1016.6 |
| 20260503221005 | 81 | 190 | 6.0 | 13.0 | 0.00 | 0.00 | 0.00 | 31 | 1016.6 |
| 20260503220006 | 82 | 207 | 6.0 | 16.0 | 0.00 | 0.00 | 0.00 | 31 | 1016.7 |
| 20260503215006 | 82 | 211 | 6.0 | 13.0 | 0.00 | 0.00 | 0.00 | 31 | 1016.8 |
| 20260503214505 | 83 | 195 | 6.0 | 13.0 | 0.00 | 0.00 | 0.00 | 31 | 1016.8 |
| 20260503214005 | 83 | 215 | 5.0 | 12.0 | 0.00 | 0.00 | 0.00 | 31 | 1016.8 |
| 20260503213506 | 82 | 204 | 6.0 | 13.0 | 0.00 | 0.00 | 0.00 | 30 | 1017.0 |
| 20260503213005 | 83 | 196 | 5.0 | 16.0 | 0.00 | 0.00 | 0.00 | 32 | 1017.1 |
| 20260503212505 | 83 | 191 | 7.0 | 15.0 | 0.00 | 0.00 | 0.00 | 31 | 1017.2 |
| 20260503212005 | 83 | 209 | 6.0 | 13.0 | 0.00 | 0.00 | 0.00 | 31 | 1017.2 |
| 20260503211505 | 83 | 200 | 8.0 | 17.0 | 0.00 | 0.00 | 0.00 | 31 | 1017.3 |
| 20260503211006 | 83 | 243 | 6.0 | 12.0 | 0.00 | 0.00 | 0.00 | 33 | 1017.4 |
| 20260503210505 | 83 | 217 | 5.0 | 17.0 | 0.00 | 0.00 | 0.00 | 33 | 1017.5 |
| 20260503210005 | 83 | 180 | 10.0 | 17.0 | 0.00 | 0.00 | 0.00 | 31 | 1017.7 |
| 20260503205505 | 84 | 237 | 5.0 | 14.0 | 0.00 | 0.00 | 0.00 | 32 | 1017.7 |
| 20260503205006 | 83 | 178 | 5.0 | 12.0 | 0.00 | 0.00 | 0.00 | 32 | 1017.9 |
| 20260503204505 | 83 | 180 | 8.0 | 17.0 | 0.00 | 0.00 | 0.00 | 31 | 1017.9 |
| 20260503204005 | 83 | 255 | 4.0 | 12.0 | 0.00 | 0.00 | 0.00 | 31 | 1018.1 |
| 20260503203505 | 83 | 249 | 6.0 | 17.0 | 0.00 | 0.00 | 0.00 | 31 | 1018.2 |
| 20260503202505 | 83 | 240 | 8.0 | 16.0 | 0.00 | 0.00 | 0.00 | 32 | 1018.4 |
| 20260503201505 | 83 | 201 | 6.0 | 12.0 | 0.00 | 0.00 | 0.00 | 32 | 1018.6 |
| 20260503201005 | 83 | 227 | 5.0 | 10.0 | 0.00 | 0.00 | 0.00 | 33 | 1018.7 |
| 20260503200505 | 82 | 234 | 5.0 | 13.0 | 0.00 | 0.00 | 0.00 | 31 | 1018.7 |
| 20260503200005 | 84 | 246 | 6.0 | 12.0 | 0.00 | 0.00 | 0.00 | 31 | 1018.7 |
| 20260503195504 | 84 | 244 | 5.0 | 17.0 | 0.00 | 0.00 | 0.00 | 31 | 1018.9 |
| 20260503195005 | 83 | 258 | 6.0 | 13.0 | 0.00 | 0.00 | 0.00 | 32 | 1019.0 |
| 20260503194506 | 83 | 275 | 3.0 | 10.0 | 0.00 | 0.00 | 0.00 | 30 | 1019.0 |
| 20260503193505 | 83 | 183 | 3.0 | 10.0 | 0.00 | 0.00 | 0.00 | 34 | 1019.3 |
| 20260503193005 | 82 | 209 | 7.0 | 13.0 | 0.00 | 0.00 | 0.00 | 32 | 1019.3 |
| 20260503192505 | 83 | 190 | 7.0 | 13.0 | 0.00 | 0.00 | 0.00 | 32 | 1019.3 |
| 20260503192005 | 83 | 197 | 6.0 | 14.0 | 0.00 | 0.00 | 0.00 | 31 | 1019.4 |
| 20260503191505 | 82 | 242 | 6.0 | 14.0 | 0.00 | 0.00 | 0.00 | 32 | 1019.5 |
| 20260503191006 | 83 | 247 | 4.0 | 14.0 | 0.00 | 0.00 | 0.00 | 32 | 1019.6 |
| 20260503190505 | 82 | 216 | 5.0 | 14.0 | 0.00 | 0.00 | 0.00 | 33 | 1019.5 |
| 20260503190005 | 83 | 224 | 5.0 | 15.0 | 0.00 | 0.00 | 0.00 | 33 | 1019.5 |
| 20260503185505 | 83 | 240 | 5.0 | 16.0 | 0.00 | 0.00 | 0.00 | 32 | 1019.7 |
| 20260503185005 | 82 | 201 | 6.0 | 13.0 | 0.00 | 0.00 | 0.00 | 36 | 1019.7 |
| 20260503184505 | 82 | 251 | 7.0 | 15.0 | 0.00 | 0.00 | 0.00 | 33 | 1019.7 |
| 20260503184005 | 83 | 229 | 8.0 | 13.0 | 0.00 | 0.00 | 0.00 | 34 | 1019.8 |
| 20260503183505 | 81 | 264 | 3.0 | 12.0 | 0.00 | 0.00 | 0.00 | 36 | 1019.9 |
| 20260503183004 | 81 | 266 | 4.0 | 17.0 | 0.00 | 0.00 | 0.00 | 35 | 1019.9 |
| 20260503182505 | 81 | 238 | 6.0 | 16.0 | 0.00 | 0.00 | 0.00 | 33 | 1020.2 |
| 20260503182006 | 81 | 247 | 5.0 | 16.0 | 0.00 | 0.00 | 0.00 | 35 | 1020.3 |
| 20260503180505 | 80 | 250 | 8.0 | 13.0 | 0.00 | 0.00 | 0.00 | 36 | 1020.6 |
| 20260503175005 | 80 | 261 | 8.0 | 17.0 | 0.00 | 0.00 | 0.00 | 36 | 1020.9 |
| 20260503174505 | 80 | 236 | 8.0 | 16.0 | 0.00 | 0.00 | 0.00 | 38 | 1021.0 |
| 20260503174005 | 80 | 253 | 6.0 | 15.0 | 0.00 | 0.00 | 0.00 | 39 | 1021.0 |
| 20260503173504 | 80 | 215 | 7.0 | 16.0 | 0.00 | 0.00 | 0.00 | 38 | 1021.1 |
| 20260503173005 | 80 | 286 | 4.0 | 13.0 | 0.00 | 0.00 | 0.00 | 40 | 1021.2 |
| 20260503172504 | 80 | 223 | 6.0 | 13.0 | 0.00 | 0.00 | 0.00 | 39 | 1021.2 |
| 20260503172005 | 80 | 221 | 5.0 | 13.0 | 0.00 | 0.00 | 0.00 | 40 | 1021.2 |
| 20260503171505 | 79 | 251 | 5.0 | 13.0 | 0.00 | 0.00 | 0.00 | 40 | 1021.4 |
| 20260503171004 | 79 | 225 | 2.0 | 13.0 | 0.00 | 0.00 | 0.00 | 42 | 1021.5 |
| 20260503170505 | 79 | 255 | 6.0 | 14.0 | 0.00 | 0.00 | 0.00 | 40 | 1021.6 |
| 20260503151005 | 73 | 250 | 6.0 | 13.0 | 0.00 | 0.00 | 0.00 | 47 | 1021.7 |
| 20260503150504 | 73 | 255 | 5.0 | 12.0 | 0.00 | 0.00 | 0.00 | 48 | 1021.8 |